DateTimeUTC,F1_A11,F1_S11,BsB_S11,BsG_S11,BsR_S11,BbsB_S11,BbsG_S11,BbsR_S11,BaB_A11,BaG_A11,BaR_A11,Tu_S11,T_S11,Uu_S11,U_S11,P_S11,T1_A11
2021-07-14T02:00:00Z,00000200,20000000,,,,,,,0000.44,0000.21,0000.11,18.9,25.7,08.9,05.9,0665.2,31.1
2021-07-14T02:01:00Z,00000200,20000000,,,,,,,-000.17,-000.17,-000.14,18.9,25.7,08.9,05.9,0665.2,31.1
2021-07-14T02:02:00Z,00000200,20000000,,,,,,,0000.02,-000.26,-000.14,18.8,25.7,08.9,05.9,0665.2,31.1
2021-07-14T02:03:00Z,00000200,60000000,,,,,,,-000.08,0000.45,0000.32,18.8,25.7,09.0,05.9,0665.2,31.1
2021-07-14T02:04:00Z,00000200,40000000,0001.21,0000.84,0000.05,0000.15,0000.46,-000.07,0000.63,0000.32,0000.17,18.9,25.5,09.0,06.1,0666.1,31.1
2021-07-14T02:05:00Z,00000200,00000000,0000.64,0000.40,0000.21,0001.02,0000.28,0000.05,0000.07,0000.47,0000.38,19.0,25.4,09.3,06.2,0666.1,31.1
2021-07-14T02:06:00Z,00000200,00000000,0001.41,0000.70,0000.42,0001.05,0000.11,0000.03,0000.63,0000.13,0000.14,19.0,25.4,09.5,06.4,0666.1,31.1
2021-07-14T02:07:00Z,00000200,00000000,0001.26,0000.96,0000.41,0000.27,0000.52,0000.17,0000.30,0000.33,0000.26,19.0,25.4,09.6,06.5,0666.1,31.1
2021-07-14T02:08:00Z,00000200,00000000,0001.68,0000.72,0000.22,0000.92,0000.40,0000.02,0000.38,0000.26,0000.27,19.0,25.4,09.7,06.5,0666.1,31.1
2021-07-14T02:09:00Z,00000200,00000000,0001.07,0000.94,0000.40,0000.39,0000.42,-000.41,0000.22,0000.06,0000.32,19.0,25.4,09.7,06.5,0666.1,31.1
2021-07-14T02:10:00Z,00000200,00000000,0001.50,0000.88,0000.21,0000.65,0000.35,-000.10,0000.32,0000.29,-000.05,19.0,25.4,09.8,06.6,0666.1,31.1
2021-07-14T02:11:00Z,00000200,00000000,0001.30,0000.94,0000.40,0000.44,0000.30,-000.00,0000.39,0000.49,0000.35,19.0,25.4,09.7,06.6,0666.1,31.1
2021-07-14T02:12:00Z,00000200,00000000,0001.68,0000.95,0000.29,-000.00,0000.02,-000.28,-000.26,0000.13,-000.08,19.0,25.4,09.7,06.6,0666.1,31.1
2021-07-14T02:13:00Z,00000200,00000000,0000.70,0000.78,0000.47,0000.32,0000.07,-000.31,0000.68,0000.36,0000.37,19.0,25.4,09.9,06.7,0666.1,31.1
2021-07-14T02:14:00Z,00000200,00000000,0001.86,0001.09,0000.42,0001.00,0000.31,0000.10,0000.15,0000.16,0000.51,19.0,25.3,10.0,06.8,0666.1,31.1
2021-07-14T02:15:00Z,00000200,00000000,0001.56,0001.11,0000.35,0000.97,0000.36,0000.10,0000.33,0000.39,0000.02,18.9,25.3,10.1,06.8,0666.1,31.1
2021-07-14T02:16:00Z,00000200,00000000,0002.25,0000.77,0000.83,0000.38,0000.30,0000.32,0000.17,0000.23,0000.26,18.9,25.3,10.1,06.9,0666.1,31.1
2021-07-14T02:17:00Z,00000200,00000000,0000.98,0000.87,0000.29,0000.43,0000.13,-000.14,0000.09,-000.22,-000.26,18.9,25.3,10.1,06.9,0666.1,31.1
2021-07-14T02:18:00Z,00000200,00000000,0000.57,0000.81,0000.54,0000.55,0000.05,0000.15,0000.09,0000.01,0000.47,18.9,25.3,10.0,06.8,0666.1,31.1
2021-07-14T02:19:00Z,00000200,00000000,0000.60,0000.92,0000.31,0000.77,0000.15,-000.06,0000.51,0000.51,-000.08,18.9,25.3,10.1,06.8,0666.1,31.1
2021-07-14T02:20:00Z,00000200,00000000,0001.37,0000.75,0000.35,0000.27,0000.11,0000.07,0000.02,-000.18,0000.20,18.9,25.3,10.1,06.8,0666.1,31.1
2021-07-14T02:21:00Z,00000200,00000000,0001.17,0000.67,0000.39,0000.52,0000.09,0000.29,0000.00,0000.04,-000.26,18.9,25.3,10.1,06.8,0666.1,31.1
2021-07-14T02:22:00Z,00000200,00000000,0001.69,0000.66,-000.02,0000.48,0000.28,-000.15,-000.08,0000.44,0000.33,18.9,25.3,09.9,06.7,0666.1,31.1
2021-07-14T02:23:00Z,00000200,00000000,0000.64,0000.79,-000.33,0000.62,0000.38,-000.27,0000.25,-000.05,-000.07,18.9,25.3,09.9,06.7,0666.0,31.1
2021-07-14T02:24:00Z,00000200,00000000,-000.28,-000.09,-000.25,0000.21,0000.11,-000.48,-000.10,0000.13,0000.09,18.9,25.3,10.0,06.8,0666.0,31.1
2021-07-14T02:25:00Z,00000200,00000000,0000.43,0000.37,-000.26,0000.34,0000.07,-000.45,0000.02,-000.37,0000.18,18.9,25.2,09.8,06.7,0666.0,31.1
2021-07-14T02:26:00Z,00000200,00000000,0000.87,0000.28,0000.07,0000.56,0000.12,-000.46,0000.19,0000.60,0000.04,18.9,25.2,09.9,06.7,0666.1,31.1
2021-07-14T02:27:00Z,00000200,00000000,0000.85,0000.34,0000.28,0000.80,0000.19,0000.17,-000.36,-000.19,-000.16,18.9,25.2,09.7,06.6,0666.1,31.1
2021-07-14T02:28:00Z,00000200,00000000,0000.36,-000.10,0000.03,0000.21,0000.28,-000.28,0000.42,0000.20,0000.10,18.9,25.2,09.8,06.7,0666.1,31.1
2021-07-14T02:29:00Z,00000200,00000000,0000.22,0000.16,-000.09,0000.25,-000.01,-000.03,-000.16,-000.24,0000.17,18.9,25.2,09.8,06.6,0666.1,31.1
2021-07-14T02:30:00Z,00000200,00000000,0000.39,0000.09,-000.18,0001.17,0000.06,-000.09,0000.12,0000.06,-000.21,18.9,25.2,09.7,06.6,0666.1,31.1
2021-07-14T02:31:00Z,00000200,00000000,0000.20,0000.45,0000.15,0000.10,0000.38,-000.14,0000.40,-000.25,0000.40,18.9,25.2,09.6,06.6,0666.1,31.1
2021-07-14T02:32:00Z,00000200,00000000,-000.02,0000.31,0000.12,0000.55,0000.11,-000.11,-000.53,0000.38,-000.12,18.9,25.2,09.6,06.6,0666.1,31.1
2021-07-14T02:33:00Z,00000200,00000000,0000.08,0000.80,0000.04,0000.46,0000.23,0000.02,0000.38,-000.17,0000.11,18.9,25.2,09.6,06.5,0666.1,31.1
2021-07-14T02:34:00Z,00000200,00000000,0000.04,0000.44,0000.07,0000.73,0000.30,0000.10,0000.08,0000.28,-000.12,18.9,25.2,09.7,06.6,0666.1,31.0
2021-07-14T02:35:00Z,00000200,00000000,0001.11,0000.07,-000.00,0000.75,-000.00,0000.01,0000.04,0000.05,-000.03,18.9,25.2,09.6,06.5,0666.1,31.0
2021-07-14T02:36:00Z,00000200,00000000,0000.65,0000.14,-000.18,0000.22,0000.13,0000.07,0000.01,-000.29,-000.10,18.9,25.2,09.5,06.5,0666.0,31.1
2021-07-14T02:37:00Z,00000200,00000000,0000.46,0000.62,-000.15,-000.24,0000.22,-000.13,0000.10,0000.28,0000.29,18.8,25.2,09.6,06.5,0666.0,31.0
2021-07-14T02:38:00Z,00000200,00000000,0001.10,0000.61,-000.05,0000.03,0000.19,-000.21,0000.12,0000.24,-000.07,18.8,25.2,09.6,06.5,0666.0,31.0
2021-07-14T02:39:00Z,00000200,00000000,0001.09,0000.31,0000.37,0000.37,0000.21,0000.00,0000.28,-000.04,0000.04,18.8,25.2,09.5,06.5,0666.1,31.0
2021-07-14T02:40:00Z,00000200,00000000,0000.64,0000.23,-000.36,0000.19,0000.22,-000.00,0000.14,0000.26,0000.26,18.8,25.1,09.5,06.5,0666.1,31.1
2021-07-14T02:41:00Z,00000200,00000000,0000.49,0000.36,0000.26,0000.53,0000.28,0000.10,-000.15,-000.24,-000.03,18.8,25.1,09.5,06.4,0666.0,31.0
2021-07-14T02:42:00Z,00000200,00000000,0001.07,0000.37,0000.01,0000.43,0000.32,-000.14,0000.30,0000.16,0000.02,18.8,25.1,09.4,06.4,0666.0,31.0
2021-07-14T02:43:00Z,00000200,00000000,0000.57,0000.53,0000.08,0000.19,0000.32,0000.26,-000.35,0000.23,0000.21,18.8,25.1,09.4,06.4,0666.0,31.0
2021-07-14T02:44:00Z,00000200,00000000,0000.44,0000.78,0000.09,0000.46,0000.34,-000.33,0000.46,0000.03,-000.12,18.8,25.1,09.4,06.4,0666.0,31.1
2021-07-14T02:45:00Z,00000200,00000000,0000.60,0000.53,0000.40,0000.57,0000.41,-000.14,-000.10,0000.00,-000.04,18.8,25.1,09.5,06.5,0666.0,31.1
2021-07-14T02:46:00Z,00000200,00000000,0000.42,0000.44,-000.11,0000.14,0000.04,-000.27,0000.22,0000.21,0000.26,18.8,25.1,09.4,06.4,0666.0,31.0
2021-07-14T02:47:00Z,00000200,00000000,0001.06,0000.78,0000.36,0000.78,0000.09,-000.15,0000.24,0000.33,-000.02,18.8,25.1,09.4,06.4,0666.0,31.0
2021-07-14T02:48:00Z,00000200,00000000,0000.55,0000.52,-000.11,0000.08,-000.02,-000.09,0000.08,-000.15,0000.34,18.8,25.1,09.4,06.4,0665.9,31.0
2021-07-14T02:49:00Z,00000200,00000000,0000.80,0000.56,0000.24,0000.90,-000.20,0000.05,-000.18,0000.45,0000.01,18.8,25.1,09.4,06.4,0665.9,31.0
2021-07-14T02:50:00Z,00000200,00000000,0000.55,0000.48,-000.08,-000.00,0000.32,-000.02,0000.58,-000.22,0000.43,18.7,25.1,09.4,06.4,0665.9,31.0
2021-07-14T02:51:00Z,00000200,00000000,0000.35,0000.33,0000.56,0000.28,0000.02,0000.04,-000.10,0000.49,-000.29,18.7,25.1,09.5,06.4,0665.9,31.1
2021-07-14T02:52:00Z,00000200,00000000,0000.22,0000.42,0000.11,0000.06,0000.05,-000.30,0000.08,-000.01,0000.03,18.7,25.1,09.4,06.4,0665.9,31.0
2021-07-14T02:53:00Z,00000200,00000000,0001.25,0000.34,0000.02,0000.04,0000.48,-000.10,0000.21,0000.21,0000.15,18.7,25.1,09.5,06.4,0665.9,31.0
2021-07-14T02:54:00Z,00000200,00000000,0000.90,0000.59,-000.01,0000.57,0000.24,-000.13,0000.18,-000.20,0000.06,18.7,25.1,09.5,06.5,0665.9,31.0
2021-07-14T02:55:00Z,00000200,00000000,0000.38,0000.25,0000.16,0000.09,0000.20,-000.02,0000.21,0000.17,0000.08,18.7,25.1,09.5,06.4,0665.9,31.0
2021-07-14T02:56:00Z,00000200,00000000,0000.95,0000.27,0000.45,0000.40,0000.15,-000.12,-000.11,0000.13,0000.39,18.7,25.0,09.5,06.5,0665.9,31.1
2021-07-14T02:57:00Z,00000200,40000000,,,,,,,0000.33,0000.01,-000.16,18.7,25.1,09.3,06.3,0665.9,31.1
2021-07-14T02:58:00Z,00000200,60000000,,,,,,,-000.38,0000.17,-000.09,18.5,25.2,09.6,06.3,0664.9,31.1
2021-07-14T02:59:00Z,00000200,20000000,,,,,,,0000.40,0000.16,-000.25,18.5,25.3,09.5,06.3,0664.9,31.0
